When you browse on this site, cookies collect data to enhance your experience and personalize the content and advertising you see.
Visit our Privacy Policy to learn more. By continuing to use the site, you agree to this use of cookies and data.
  • Em Portugal
  • Lista de países
  • Para 7 dias
  • Temperatura da água
  • Mapa do tempo
  • Widgets de tempo
  • user-avatar
    Iniciar Sessão

    Previsão horária em Plavuchaya Bereza

    Hoje, 26 Janeiro, Domingo

    Tempo Temperatura Precipitação Vento Pressão Humidade
    00:00 -2°C° 0 mm 3 m/s 752 mmHg 80%
    01:00 -2°C° 0 mm 3 m/s 752 mmHg 81%
    02:00 -2°C° 0 mm 3 m/s 752 mmHg 83%
    03:00 -2°C° 0 mm 3 m/s 752 mmHg 82%
    04:00 -2°C° 0 mm 3 m/s 752 mmHg 81%
    05:00 -2°C° 0 mm 3 m/s 753 mmHg 81%
    06:00 -1°C° 0 mm 3 m/s 752 mmHg 79%
    07:00 -1°C° 0 mm 3 m/s 752 mmHg 78%
    08:00 -1°C° 0 mm 3 m/s 751 mmHg 76%
    09:00 -2°C° 0.1 mm 4 m/s 751 mmHg 82%
    10:00 -1°C° 0.1 mm 5 m/s 751 mmHg 88%
    11:00 -1°C° 0.1 mm 5 m/s 750 mmHg 94%
    12:00 0°C° 0.1 mm 5 m/s 750 mmHg 91%
    13:00 +1°C° 0.1 mm 5 m/s 749 mmHg 88%
    14:00 +2°C° 0.1 mm 6 m/s 749 mmHg 85%
    15:00 +2°C° 0 mm 5 m/s 749 mmHg 85%
    16:00 +3°C° 0 mm 5 m/s 749 mmHg 86%
    17:00 +3°C° 0 mm 5 m/s 749 mmHg 86%
    18:00 +3°C° 0 mm 5 m/s 749 mmHg 87%
    19:00 +3°C° 0 mm 5 m/s 749 mmHg 88%
    20:00 +4°C° 0 mm 4 m/s 750 mmHg 89%
    21:00 +4°C° 0 mm 4 m/s 750 mmHg 90%
    22:00 +3°C° 0 mm 4 m/s 751 mmHg 91%
    23:00 +3°C° 0 mm 3 m/s 751 mmHg 92%

    Amanhã, 27 Janeiro, Segunda-feira

    Tempo Temperatura Precipitação Vento Pressão Humidade
    00:00 +3°C° 0 mm 3 m/s 751 mmHg 92%
    01:00 +3°C° 0 mm 3 m/s 752 mmHg 93%
    02:00 +3°C° 0 mm 3 m/s 752 mmHg 94%
    03:00 +4°C° 0 mm 2 m/s 752 mmHg 94%
    04:00 +4°C° 0 mm 2 m/s 752 mmHg 95%
    05:00 +3°C° 0 mm 2 m/s 752 mmHg 96%
    06:00 +3°C° 0 mm 2 m/s 752 mmHg 96%
    07:00 +3°C° 0 mm 2 m/s 752 mmHg 97%
    08:00 +4°C° 0 mm 1 m/s 752 mmHg 97%
    09:00 +4°C° 0.3 mm 1 m/s 752 mmHg 97%
    10:00 +3°C° 0.3 mm 2 m/s 753 mmHg 97%
    11:00 +4°C° 0.3 mm 2 m/s 753 mmHg 97%
    12:00 +4°C° 0.3 mm 2 m/s 752 mmHg 97%
    13:00 +4°C° 0.3 mm 2 m/s 752 mmHg 97%
    14:00 +4°C° 0.3 mm 2 m/s 752 mmHg 96%
    15:00 +4°C° 0.3 mm 2 m/s 752 mmHg 97%
    16:00 +4°C° 0.3 mm 2 m/s 752 mmHg 97%
    17:00 +4°C° 0.3 mm 2 m/s 751 mmHg 97%
    18:00 +3°C° 0.2 mm 2 m/s 751 mmHg 97%
    19:00 +3°C° 0.2 mm 2 m/s 751 mmHg 97%
    20:00 +3°C° 0.2 mm 2 m/s 751 mmHg 97%
    21:00 +3°C° 0.3 mm 2 m/s 751 mmHg 97%
    22:00 +4°C° 0.3 mm 1 m/s 751 mmHg 97%
    23:00 +4°C° 0.3 mm 1 m/s 751 mmHg 98%

    Depois de amanhã, 28 Janeiro, Terça-feira

    Tempo Temperatura Precipitação Vento Pressão Humidade
    00:00 +4°C° 0.1 mm 1 m/s 751 mmHg 97%
    01:00 +4°C° 0.1 mm 1 m/s 751 mmHg 97%
    02:00 +4°C° 0.1 mm 1 m/s 750 mmHg 97%
    03:00 +4°C° 0.1 mm 1 m/s 750 mmHg 97%
    04:00 +4°C° 0.1 mm 1 m/s 750 mmHg 97%
    05:00 +4°C° 0.1 mm 1 m/s 750 mmHg 97%
    06:00 +4°C° 0 mm 1 m/s 750 mmHg 96%
    07:00 +4°C° 0 mm 1 m/s 750 mmHg 96%
    08:00 +3°C° 0 mm 2 m/s 750 mmHg 96%
    09:00 +3°C° 0 mm 2 m/s 750 mmHg 93%
    10:00 +3°C° 0 mm 2 m/s 750 mmHg 91%
    11:00 +3°C° 0 mm 2 m/s 750 mmHg 88%
    12:00 +3°C° 0 mm 2 m/s 750 mmHg 86%
    13:00 +3°C° 0 mm 2 m/s 750 mmHg 85%
    14:00 +3°C° 0 mm 2 m/s 749 mmHg 83%
    15:00 +2°C° 0 mm 2 m/s 749 mmHg 85%
    16:00 +2°C° 0 mm 2 m/s 749 mmHg 87%
    17:00 +2°C° 0 mm 2 m/s 749 mmHg 90%
    18:00 0°C° 0 mm 3 m/s 749 mmHg 90%
    19:00 0°C° 0 mm 3 m/s 749 mmHg 91%
    20:00 0°C° 0 mm 3 m/s 749 mmHg 91%
    21:00 0°C° 0 mm 3 m/s 748 mmHg 91%
    22:00 0°C° 0 mm 3 m/s 748 mmHg 92%
    23:00 0°C° 0 mm 3 m/s 748 mmHg 92%

    29 Janeiro, Quarta-feira

    Tempo Temperatura Precipitação Vento Pressão Humidade
    00:00 +1°C° 0 mm 3 m/s 748 mmHg 92%
    01:00 +1°C° 0 mm 3 m/s 748 mmHg 92%
    02:00 +1°C° 0 mm 3 m/s 747 mmHg 91%
    03:00 +1°C° 0 mm 3 m/s 747 mmHg 91%
    04:00 +1°C° 0 mm 3 m/s 747 mmHg 90%
    05:00 +1°C° 0 mm 3 m/s 746 mmHg 89%
    06:00 0°C° 0 mm 3 m/s 746 mmHg 89%
    07:00 0°C° 0 mm 3 m/s 746 mmHg 89%
    08:00 -1°C° 0 mm 3 m/s 746 mmHg 89%
    09:00 0°C° 0 mm 3 m/s 746 mmHg 88%
    10:00 -1°C° 0 mm 4 m/s 746 mmHg 87%
    11:00 -1°C° 0 mm 4 m/s 746 mmHg 86%
    12:00 -1°C° 0 mm 4 m/s 746 mmHg 87%
    13:00 -1°C° 0 mm 4 m/s 746 mmHg 87%
    14:00 -1°C° 0 mm 4 m/s 746 mmHg 88%
    15:00 -1°C° 0 mm 4 m/s 746 mmHg 88%
    16:00 0°C° 0 mm 3 m/s 746 mmHg 88%
    17:00 0°C° 0 mm 3 m/s 746 mmHg 88%
    18:00 +1°C° 0 mm 3 m/s 746 mmHg 89%
    19:00 +1°C° 0 mm 3 m/s 746 mmHg 89%
    20:00 +1°C° 0 mm 3 m/s 746 mmHg 90%
    21:00 +1°C° 0 mm 3 m/s 746 mmHg 89%
    22:00 +1°C° 0 mm 3 m/s 746 mmHg 89%
    23:00 +1°C° 0 mm 3 m/s 745 mmHg 89%

    30 Janeiro, Quinta-feira

    Tempo Temperatura Precipitação Vento Pressão Humidade
    00:00 +1°C° 0 mm 3 m/s 745 mmHg 90%
    01:00 +1°C° 0 mm 3 m/s 745 mmHg 91%
    02:00 +1°C° 0 mm 3 m/s 745 mmHg 92%
    03:00 +1°C° 0.1 mm 3 m/s 745 mmHg 94%
    04:00 +1°C° 0.1 mm 3 m/s 745 mmHg 95%
    05:00 +2°C° 0.1 mm 2 m/s 745 mmHg 97%
    06:00 +2°C° 0.1 mm 2 m/s 745 mmHg 97%
    07:00 +1°C° 0.1 mm 3 m/s 745 mmHg 96%
    08:00 +1°C° 0.1 mm 3 m/s 745 mmHg 96%
    09:00 +2°C° 0 mm 2 m/s 745 mmHg 96%
    10:00 +2°C° 0 mm 2 m/s 745 mmHg 96%
    11:00 +2°C° 0 mm 2 m/s 745 mmHg 95%
    12:00 +2°C° 0 mm 2 m/s 745 mmHg 93%
    13:00 +2°C° 0 mm 2 m/s 745 mmHg 91%
    14:00 +2°C° 0 mm 2 m/s 745 mmHg 89%
    15:00 +2°C° 0 mm 2 m/s 745 mmHg 91%
    16:00 +1°C° 0 mm 2 m/s 745 mmHg 92%
    17:00 +1°C° 0 mm 2 m/s 745 mmHg 94%
    18:00 +1°C° 0 mm 2 m/s 745 mmHg 95%
    19:00 +1°C° 0 mm 2 m/s 745 mmHg 96%
    20:00 +1°C° 0 mm 2 m/s 745 mmHg 96%
    21:00 +2°C° 0 mm 1 m/s 745 mmHg 96%
    22:00 +2°C° 0 mm 1 m/s 745 mmHg 96%
    23:00 +1°C° 0 mm 1 m/s 746 mmHg 96%

    31 Janeiro, Sexta-feira

    Tempo Temperatura Precipitação Vento Pressão Humidade
    00:00 +1°C° 0.1 mm 1 m/s 746 mmHg 96%
    01:00 +1°C° 0.1 mm 1 m/s 746 mmHg 96%
    02:00 +1°C° 0.1 mm 1 m/s 746 mmHg 96%
    03:00 -1°C° 0 mm 2 m/s 746 mmHg 96%
    04:00 -1°C° 0 mm 2 m/s 746 mmHg 95%
    05:00 -1°C° 0 mm 2 m/s 746 mmHg 94%
    06:00 -1°C° 0 mm 2 m/s 746 mmHg 95%
    07:00 -2°C° 0 mm 2 m/s 747 mmHg 95%
    08:00 -2°C° 0 mm 2 m/s 747 mmHg 95%
    09:00 -1°C° 0 mm 2 m/s 747 mmHg 93%
    10:00 -1°C° 0 mm 2 m/s 748 mmHg 90%
    11:00 -1°C° 0 mm 2 m/s 748 mmHg 88%
    12:00 +1°C° 0 mm 2 m/s 748 mmHg 87%
    13:00 +1°C° 0 mm 2 m/s 749 mmHg 85%
    14:00 +1°C° 0 mm 2 m/s 749 mmHg 83%
    15:00 +1°C° 0 mm 2 m/s 749 mmHg 84%
    16:00 +1°C° 0 mm 2 m/s 750 mmHg 84%
    17:00 -1°C° 0 mm 2 m/s 750 mmHg 84%
    18:00 -1°C° 0 mm 2 m/s 751 mmHg 85%
    19:00 +1°C° 0 mm 1 m/s 751 mmHg 85%
    20:00 +1°C° 0 mm 1 m/s 752 mmHg 86%
    21:00 +1°C° 0 mm 1 m/s 752 mmHg 86%
    22:00 +1°C° 0 mm 1 m/s 752 mmHg 86%
    23:00 +1°C° 0 mm 1 m/s 753 mmHg 86%
    Mostrar mais